This demonstration page uses our WeatherBlox Daily Observations layout. Learn more.

Hourly Observations for August 22, 2015

Temp ( °F °C ) Dew Point ( °F °C ) Humidity (%) Winds ( mph kmh ) Pressure ( in mb ) Visibility ( mi km ) Precip ( " mm )
12:15 am 00:15 Clear 70 21 66 18.7 87 87 S 14 22 29.68 1005 7 11.26538 0 0
12:35 am 00:35 Clear 69 20.8 66 18.8 88 88 S 15 24 29.68 1005 7 11.26538 0 0
12:55 am 00:55 Clear 69 20.6 66 18.7 89 89 S 15 24 29.74 1007 7 11.26538 0 0
1:15 am 01:15 Clear 69 20.3 66 18.7 91 91 SSE 13 20 29.74 1007 7 11.26538 0 0
1:35 am 01:35 Mostly Cloudy with Mist and Fog 68 20.2 66 18.7 91 91 S 13 20 29.74 1007 5 8.0467 0 0
1:55 am 01:55 Cloudy with Mist and Fog 68 20.2 66 18.8 92 92 SSE 16 26 29.74 1007 5 8.0467 0 0
2:15 am 02:15 Cloudy 69 20.4 66 18.9 91 91 SSE 16 26 29.74 1007 7 11.26538 0 0
2:35 am 02:35 Mostly Cloudy 68 20.1 65 18.6 91 91 S 13 20 29.71 1006 7 11.26538 0 0
2:55 am 02:55 Partly Cloudy 68 20 65 18.6 92 92 S 12 19 29.71 1006 7 11.26538 0 0
3:15 am 03:15 Clear 68 20 65 18.5 91 91 S 10 17 29.71 1006 7 11.26538 0 0
3:35 am 03:35 Clear 67 19.6 65 18.2 92 92 S 14 22 29.71 1006 7 11.26538 0 0
3:55 am 03:55 Clear with Mist and Fog 67 19.5 65 18.1 92 92 SSE 14 22 29.71 1006 5 8.0467 0 0
4:15 am 04:15 Clear 67 19.5 65 18.1 92 92 SSE 14 22 29.71 1006 7 11.26538 0 0
4:35 am 04:35 Clear 67 19.4 64 18 92 92 SSE 16 26 29.71 1006 7 11.26538 0 0
4:55 am 04:55 Clear 67 19.5 64 18 91 91 S 15 24 29.71 1006 7 11.26538 0 0
5:15 am 05:15 Clear 67 19.7 64 18 90 90 S 16 26 29.71 1006 10 16.0934 0 0
5:35 am 05:35 Clear 67 19.7 64 17.8 89 89 S 15 24 29.71 1006 10 16.0934 0 0
5:55 am 05:55 Clear 67 19.6 64 17.7 89 89 S 15 24 29.71 1006 10 16.0934 0 0
6:15 am 06:15 Clear 67 19.3 64 17.5 89 89 S 13 20 29.71 1006 10 16.0934 0 0
6:35 am 06:35 Clear 67 19.3 64 17.5 89 89 S 12 19 29.71 1006 10 16.0934 0 0
6:55 am 06:55 Sunny 66 19.1 64 17.5 91 91 S 12 19 29.71 1006 10 16.0934 0 0
7:15 am 07:15 Sunny 66 19.1 64 17.5 91 91 S 13 20 29.71 1006 10 16.0934 0 0
7:35 am 07:35 Sunny 67 19.3 64 17.5 89 89 S 12 19 29.71 1006 10 16.0934 0 0
7:55 am 07:55 Sunny 67 19.5 64 17.5 88 88 S 12 19 29.71 1006 10 16.0934 0 0
8:15 am 08:15 Sunny 67 19.7 64 17.7 88 88 S 12 19 29.71 1006 10 16.0934 0 0
8:35 am 08:35 Sunny 68 20 64 17.8 87 87 S 12 19 29.71 1006 10 16.0934 0 0
8:55 am 08:55 Sunny 69 20.6 64 18 85 85 S 15 24 29.68 1005 10 16.0934 0 0
9:15 am 09:15 Sunny 70 21.1 65 18.2 84 84 S 17 28 29.68 1005 10 16.0934 0 0
9:35 am 09:35 Partly Cloudy 71 21.8 65 18.3 81 81 S 17 28 29.68 1005 10 16.0934 0 0
9:55 am 09:55 Mostly Cloudy 72 22.2 65 18.5 80 80 S 23 37 29.68 1005 10 16.0934 0 0
10:15 am 10:15 Partly Cloudy 73 23 65 18.6 76 76 SSW 22 35 29.68 1005 10 16.0934 0 0
10:35 am 10:35 Partly Cloudy 75 23.7 65 18.6 73 73 SSW 22 35 29.68 1005 10 16.0934 0 0
10:55 am 10:55 Partly Cloudy 75 24 65 18.6 72 72 S 15 24 29.68 1005 10 16.0934 0 0
11:15 am 11:15 Partly Cloudy 76 24.7 66 18.8 70 70 S 18 30 29.65 1004 10 16.0934 0 0
11:35 am 11:35 Partly Cloudy 78 25.3 66 19 68 68 S 16 26 29.65 1004 10 16.0934 0 0
11:55 am 11:55 Sunny 78 25.8 66 19 66 66 S 15 24 29.65 1004 10 16.0934 0 0
12:15 pm 12:15 Partly Cloudy 79 26.2 66 19 65 65 S 15 24 29.65 1004 10 16.0934 0 0
12:35 pm 12:35 Partly Cloudy 80 26.8 67 19.4 64 64 S 13 20 29.65 1004 10 16.0934 0 0
12:55 pm 12:55 Partly Cloudy 81 27.2 67 19.3 62 62 SSW 10 17 29.65 1004 10 16.0934 0 0
1:15 pm 13:15 Partly Cloudy 82 27.8 66 19.1 59 59 SSW 9 15 29.65 1004 10 16.0934 0 0
1:35 pm 13:35 Sunny 82 27.9 66 19 58 58 WSW 8 13 29.65 1004 10 16.0934 0 0
1:55 pm 13:55 Sunny 82 27.7 67 19.2 60 60 WSW 7 11 29.68 1005 10 16.0934 0 0
2:15 pm 14:15 Partly Cloudy 82 27.8 65 18.5 57 57 WNW 6 9 29.68 1005 10 16.0934 0 0
2:35 pm 14:35 Partly Cloudy 82 27.8 66 19 59 59 NW 7 11 29.68 1005 10 16.0934 0 0
2:55 pm 14:55 Mostly Cloudy 81 27.2 66 19 61 61 N 8 13 29.68 1005 10 16.0934 0 0
3:15 pm 15:15 Mostly Cloudy 81 27.4 67 19.2 61 61 N 12 19 29.71 1006 10 16.0934 0 0
3:35 pm 15:35 Partly Cloudy 79 26.1 62 16.6 56 56 N 16 26 29.71 1006 7 11.26538 0 0
3:55 pm 15:55 Sunny 79 26.3 61 16.3 54 54 N 13 20 29.74 1007 7 11.26538 0 0
4:15 pm 16:15 Sunny 78 25.8 61 16.3 56 56 N 14 22 29.74 1007 10 16.0934 0 0
4:35 pm 16:35 Sunny 77 25.1 60 15.5 55 55 N 16 26 29.77 1008 10 16.0934 0 0
4:55 pm 16:55 Partly Cloudy 77 25 60 15.4 55 55 N 18 30 29.8 1009 10 16.0934 0 0
5:15 pm 17:15 Partly Cloudy 75 23.7 58 14.6 57 57 N 17 28 29.8 1009 7 11.26538 0 0
5:35 pm 17:35 Sunny 74 23.5 58 14.4 57 57 N 16 26 29.8 1009 7 11.26538 0 0
5:55 pm 17:55 Sunny 72 22.2 55 12.6 55 55 N 21 33 29.85 1011 7 11.26538 0 0
6:15 pm 18:15 Sunny 71 21.6 55 12.8 57 57 N 18 30 29.85 1011 7 11.26538 0 0
6:35 pm 18:35 Sunny 70 20.9 55 12.9 60 60 N 14 22 29.85 1011 7 11.26538 0 0
6:55 pm 18:55 Sunny 70 20.9 55 12.9 60 60 N 14 22 29.85 1011 7 11.26538 0 0
7:15 pm 19:15 Sunny 68 20.2 54 12.3 61 61 N 14 22 29.85 1011 10 16.0934 0 0
7:35 pm 19:35 Sunny 67 19.3 54 12.3 64 64 N 9 15 29.91 1013 10 16.0934 0 0
7:55 pm 19:55 Sunny 67 19.2 55 12.5 65 65 N 8 13 29.91 1013 10 16.0934 0 0
8:15 pm 20:15 Sunny 66 18.9 55 12.5 67 67 NNW 9 15 29.91 1013 10 16.0934 0 0
8:35 pm 20:35 Partly Cloudy 66 18.7 54 12.3 67 67 NNW 8 13 29.91 1013 10 16.0934 0 0
8:55 pm 20:55 Partly Cloudy 65 18.6 54 12.1 66 66 NNW 7 11 29.94 1014 10 16.0934 0 0
9:15 pm 21:15 Clear 64 18 54 12 68 68 NNW 8 13 29.97 1015 10 16.0934 0 0
9:35 pm 21:35 Clear 63 17.4 53 11.8 70 70 N 13 20 29.94 1014 10 16.0934 0 0
9:55 pm 21:55 Clear 64 18 51 10.8 63 63 N 14 22 29.97 1015 10 16.0934 0 0
10:15 pm 22:15 Clear 64 18 50 10.1 60 60 N 13 20 30 1016 10 16.0934 0 0
10:35 pm 22:35 Clear 63 17.4 48 8.9 58 58 N 14 22 30 1016 10 16.0934 0 0
10:55 pm 22:55 Clear 63 17 46 7.9 55 55 N 14 22 30 1016 10 16.0934 0 0
11:15 pm 23:15 Clear 61 16 47 8.3 60 60 N 13 20 30.06 1018 10 16.0934 0 0
11:35 pm 23:35 Clear 60 15.8 46 7.7 59 59 N 13 20 30.06 1018 10 16.0934 0 0
11:55 pm 23:55 Clear 60 15.6 46 7.6 59 59 N 14 22 30.09 1019 10 16.0934 0 0

Powered by AerisWeather